Regional Weather Roundup
Issued by NWS Wakefield, VA

Home | Current Version | Previous Version | Graphics & Text | Print | Product List | Glossary On
Versions: 1 2 3 4 5 6 7 8 9 10 11 12 13 14 15 16 17 18 19 20 21 22 23 24 25 26 27
000
ASUS41 KAKQ 291815
RWRAKQ

REGIONAL WEATHER ROUNDUP
NATIONAL WEATHER SERVICE WAKEFIELD VA
200 PM EDT FRI APR 29 2016

Note: "fair" indicates few or no clouds below 12,000 feet with no
significant weather and/or obstructions to visibility. * = Denotes
station may not report precipitation (e.g., rain,snow,etc.),
thunder or fog.

VAZ042-051-052>054-056-291900-
NORTHERN VIRGINIA

CITY           SKY/WX    TMP DP  RH WIND       PRES   REMARKS
WASH NATIONAL  CLOUDY    53  49  86 CALM      30.06R
DULLES         CLOUDY    51  47  86 CALM      30.06R FOG
FORT BELVOIR   CLOUDY    53  48  83 S2        30.06R
QUANTICO       CLOUDY    55  49  80 CALM      30.07R
FREDERICKSBRG* CLOUDY    54  54  98 CALM      30.04F
STAFFORD*      CLOUDY    53  49  86 CALM      30.09S
WARRENTON      CLOUDY    53  47  79 NE3       30.03F HAZE
CULPEPER*      CLOUDY    54  51  90 CALM      30.05F
MANASSAS*      CLOUDY    54  52  94 CALM      30.06R
LEESBURG*      CLOUDY    52  50  93 S3        30.06S FOG
WINCHESTER     CLOUDY    52  50  93 E3        30.03S
FRONT ROYAL*   CLOUDY    54  50  87 N6        30.00F
LURAY*         CLOUDY    57  54  88 CALM      29.99F
$$

VAZ048-049-060>072-079>083-291900-
CENTRAL AND SOUTH CENTRAL VIRGINIA

CITY           SKY/WX    TMP DP  RH WIND       PRES   REMARKS
RICHMOND       CLOUDY    58  52  80 CALM      30.04R
CHESTERFIELD*  CLOUDY    55  43  62 CALM      30.06R
PETERSBURG*    CLOUDY    58  56  95 CALM      30.05R
HANOVER        CLOUDY    57  50  77 VRB3      30.05R
TAPPAHANNOCK*  CLOUDY    56  53  91 CALM      30.05R
QUINTON*       CLOUDY    56  53  88 W6        30.03R
CHARLOTTSVILLE CLOUDY    55  49  80 NE5       30.03F
GORDONSVILLE*  CLOUDY    53  51  93 SE3       30.03F
ORANGE*        CLOUDY    54  52  94 CALM      30.05F FOG
LOUISA*        CLOUDY    57  54  88 CALM      30.03F FOG
BUMPASS*       CLOUDY    53  51  90 CALM      30.04F
FARMVILLE*     CLOUDY    59  57  91 E7        30.01F
CREWE*         CLOUDY    56  56 100 E3        30.04S
FORT PICKETT*  NOT AVBL
CHASE CITY*    CLOUDY    62  59  92 NE3       30.02F
CLARKSVILLE*   MOCLDY    64  59  82 E8        30.01F
SOUTH HILL*    CLOUDY    58  55  92 CALM      30.09S
LAWRENCEVILLE* CLOUDY    58  55  91 CALM      30.03S
EMPORIA*       CLOUDY    55  54  94 CALM      30.05R
$$

VAZ088>098-291900-
SOUTHEAST VIRGINIA

CITY           SKY/WX    TMP DP  RH WIND       PRES   REMARKS
NORFOLK        CLOUDY    57  53  86 N7        29.99F
VIRGINIA BEACH CLOUDY    60  54  80 N9        29.98F
NORFOLK NAVAL  CLOUDY    58  54  86 N10       30.03R
WEST POINT*    CLOUDY    57  53  86 CALM      30.05R
SALUDA*        CLOUDY    56  53  92 CALM      30.03R
NEWPORT NEWS   CLOUDY    58  54  86 N7        30.02S
LANGLEY AFB    CLOUDY    57  54  90 N8        30.01S
FORT EUSTIS    CLOUDY    57  57 100 NE3       30.00S
WILLIAMSBURG*  PTSUNNY   59  57  94 CALM      30.04R
HR EXEC AP*    CLOUDY    59  54  82 N6        30.02R
FRANKLIN*      CLOUDY    60  55  85 N3        30.02R
US460-WAKEFLD  CLOUDY    59  53  80 CALM      30.03R
$$

VAZ020-022-025-037-045-291900-
WEST CENTRAL AND SOUTHWEST VIRGINIA

CITY           SKY/WX    TMP DP  RH WIND       PRES   REMARKS
STAUNTON*      FAIR      65  61  87 CALM      29.98F
WAYNESBORO*    FAIR      60  52  74 MISG      29.97F
HOT SPRINGS VA FAIR      66  46  47 NW7G17    30.01S
LYNCHBURG      PTSUNNY   68  58  70 E9        29.99F
DANVILLE       FAIR      77  57  50 CALM      29.97F
SOUTH BOSTON*  FAIR      69  59  70 E6        29.99F
MARTINSVILLE   FAIR      76  54  47 S6        29.98F
ROANOKE        FAIR      80  48  32 NW8G21    29.96F
BLACKSBURG     FAIR      74  49  41 W9        30.02F
DUBLIN*        FAIR      75  46  35 NW9G17    30.01F
MARION*        FAIR      74  49  40 W13G18    30.04F
HILLSVILLE*    FAIR      71  46  40 NW15      30.01F
RICHLANDS*     FAIR      73  34  24 W12       30.04S
WISE*          FAIR      73  37  27 W8G17     30.07S
ABINGDON*      FAIR      75  49  40 W8        30.04S
$$

MDZ021>025-VAZ099-100-291900-
SOUTHERN MARYLAND AND THE DELMARVA PENINSULA

CITY           SKY/WX    TMP DP  RH WIND       PRES   REMARKS
PATUXENT RIVER CLOUDY    54  50  86 N3        30.04S
BAY BRIDGE APT NOT AVBL
LEONARDTOWN    CLOUDY    54  50  87 CALM      30.05R
DOVER          CLOUDY    52  52 100 NE7       30.04S
GEORGETOWN     CLOUDY    51  48  89 NE13      30.04S FOG
EASTON         NOT AVBL
CAMBRIDGE      CLOUDY    52  48  87 CALM      30.04R
SALISBURY      CLOUDY    52  50  93 NE8       30.02F FOG
OCEAN CITY     CLOUDY    54  48  80 NE13      30.01F
WALLOPS ISLAND CLOUDY    55  51  86 N8        30.01S
ACCOMACK*      CLOUDY    54  10  17 N5        30.00F HAZE
$$

NCZ012>017-030>032-291900-
NORTH CENTRAL AND EASTERN NORTH CAROLINA

CITY           SKY/WX    TMP DP  RH WIND       PRES   REMARKS
ROANOKE RAPIDS CLOUDY    59  55  88 N3        30.03R
RALEIGH        MOSUNNY   74  61  63 NE7       29.99S
ELIZABETH CITY CLOUDY    63  57  81 N6        29.98S
AHOSKIE*       CLOUDY    59  56  90 CALM      30.01S
EDENTON*       CLOUDY    63  60  89 N3        29.99S
CURRITUCK*     CLOUDY   N/A N/A N/A N7        29.99F
KILL DEVIL HLS CLOUDY    64  55  74 N8        29.95F
MANTEO         NOT AVBL
CAPE HATTERAS  MOSUNNY   69  61  75 VRB7      29.93F
TARBORO*       CLOUDY    62  58  86 CALM      30.02R
GOLDSBORO      CLOUDY    68  64  88 N5        29.99R
WASHINGTON     CLOUDY    64  58  83 CALM      29.99S
GREENVILLE     CLOUDY    63  59  88 CALM      30.01S
NEW BERN       CLOUDY    68  59  73 VRB5      29.99F
WILMINGTON     MOSUNNY   76  64  66 E10       29.95F
$$

VAZ048-291900-
ELSEWHERE

CITY           SKY/WX    TMP DP  RH WIND       PRES   REMARKS
HARRISBURG PA  CLOUDY    49  43  80 S3        30.07R
BALTIMORE      CLOUDY    50  47  89 E5        30.06R
ANNAPOLIS      CLOUDY    52  48  86 MISG      30.06R
ANDREWS AFB    CLOUDY    52  48  87 NE5       30.05R
PHILADELPHIA   CLOUDY    53  39  59 E13       30.07F
HENDERSON NC   PTSUNNY   67  60  78 E6        30.02S
GREENSBORO     MOSUNNY   80  50  34 VRB6      29.96F
ROCKY MOUNT    CLOUDY    63  57  81 N5        30.02R
$$

VAZ100-291900-
MARINE

STATION/POSITION TIME  TEMP    WIND        PRES    WAVE   SWELL
                       AIR SEA DIR/SP/G            HT/PER HT/PER
                 (UTC) (F)     (DEG/KT/KT) (MB)    (FT/S) (FT/S)
BRANDYWINE LGT   1700   51      60/ 15/ 17 1017.0F
CAPE MAY NJ      1700   53 57   50/  9/ 15 1016.5F
LEWES DE         1700   51 54   50/ 17/ 20 1017.1F
15NM E FENWICK I 1750   51 51              1015.8F   6/ 7
OCEAN-CITY-INLET 1700   52 54   30/  8/ 12 1015.8F
WACHAPREAGUE VA  1700   54 58   20/  4/  9 1015.6F
THOMAS POINT MD  1800   51 57  350/  4/  5 1019.2R
GOOSES REEF MD   1800   53 57  350/  6/  6 1018.4R   1/ 2
COVE POINT MD    1700   52      50/  4/  6 1017.7F
SOLOMONS ISLAND  1700   53 60   60/  5/  7   N/A
BISHOPS HEAD MD  1700   54 57   40/  5/  9 1016.1F
PINEY POINT MD   1700           70/  5/  7   N/A
POTOMAC MD       1800   53 59   20/  6/  8 1016.1R   0
CAMBRIDGE MD     1700   53 61   60/  8/ 11 1016.4F
LEWISETTA VA     1700   54 60   60/  5/  7 1016.6F
RAPPAHANNOCK LGT 1700           10/ 11/ 12 1016.6F
STINGRAY PT      1800   55 61  360/  8/ 10 1017.0R   1/ 2
YORK RVR RNG VA  1700   55      30/  7/ 10 1015.8F
YORKTOWN VA      1700   56 62   10/  6/  7 1016.1F
JAMESTOWN VA     1800   57 66  310/  4/ 10   N/A     0
DOMINION TERM VA 1700   56      80/  3/  4 1016.1F
KIPTOPEKE VA     1700      60   40/  4/  7   N/A
CHES BAY BRIDGE  1700   55 60  350/  7/  8 1015.5F
CAPE HENRY VA    1700   55      20/  7/  8   N/A
CHESAPEAKE LGHT  1700   53      10/ 13/ 14 1016.1F
WILLOUBY STN VA  1700   55      20/  6/  7 1016.9F
CAPE HENRY BUOY  1712      55                N/A     4/ 6
CAPE CHARLES BUO 1726      56                N/A     3/ 6   3/ 6
OFFSHORE WE BUOY 1721      55                N/A     4/ 7   3/ 7
64NM E OF VA BCH 1750   54 54  350/ 10/ 12 1013.7F   4/ 6   3/ 6
DUCK PIER NC     1700   55 67  350/ 11/ 13 1014.5F
44100 DUCK FRF   1724      58                N/A     4/ 5
44056 DUCK FRF   1711      58                N/A     4/ 7
OREGON INLET NC  1700   60 63  360/ 11/ 16 1014.6F
HATTERAS NC      1700   64 69  340/ 15/ 18 1014.2F
DIAMOND SHLS NC  1750   65 74  350/ 16/ 17 1013.4F   3/ 9   2/ 9
CAPE LOOKOUT NC  1800   69     360/  6/  9 1014.1F
$$




USA.gov is the U.S. government's official web portal to all federal, state and local government web resources and services.